Regional Weather Roundup
Issued by NWS

Home | Current Version | Previous Version | Text Only | Print | Product List | Glossary On
Versions: 1 2 3 4 5 6 7 8 9 10 11 12 13 14 15 16 17 18 19 20 21 22 23 24 25 26 27 28 29 30 31 32 33 34 35 36 37 38 39 40 41 42 43 44 45 46 47 48 49 50
000
ASUS43 KLMK 301110
RWRKY
KENTUCKY REGIONAL WEATHER ROUNDUP
NATIONAL WEATHER SERVICE LOUISVILLE KY
700 AM EDT THU OCT 30 2014

NOTE "FAIR" INDICATES FEW OR NO CLOUDS BELOW 12,000 FEET
WITH NO SIGNIFICANT WEATHER AND/OR OBSTRUCTIONS TO VISIBILITY.

KYZ001>023-026-027-061>063-070>075-301200-
WESTERN AND SOUTH CENTRAL KENTUCKY

CITY           SKY/WX    TMP DP  RH WIND       PRES   REMARKS
PADUCAH        CLEAR     36  34  92 CALM      30.16S
HENDERSON      CLEAR     34  30  86 CALM      30.17S
OWENSBORO      CLEAR     38  37  96 CALM      30.18R
HOPKINSVILLE   CLEAR     37  37  99 CALM      30.16R
BOWLING GREEN  CLEAR     38  36  92 CALM      30.16R
GLASGOW        CLEAR     35  35 100 CALM      30.15S
$$

KYZ024-025-028>034-038-045-046-053-301200-
NORTH CENTRAL KENTUCKY

CITY           SKY/WX    TMP DP  RH WIND       PRES   REMARKS
LOUISVILLE/SDF CLEAR     39  36  89 VRB5      30.17R
LOUISVILLE/LOU CLEAR     38  34  85 CALM      30.17R
FORT KNOX      CLEAR     34  32  93 CALM      30.15R
$$

KYZ035>037-039>044-047>052-055>060-089>105-301200-
NORTHEAST KENTUCKY

CITY           SKY/WX    TMP DP  RH WIND       PRES   REMARKS
LEXINGTON      CLEAR     38  32  79 CALM      30.14R
COVINGTON      PTCLDY    41  33  73 N3        30.15R
FRANKFORT      CLEAR     33  31  92 N3        30.15R
$$

KYZ054-064>069-076>088-106>120-301200-
SOUTHEAST KENTUCKY

CITY           SKY/WX    TMP DP  RH WIND       PRES   REMARKS
JACKSON        CLEAR     40  32  73 CALM      30.12S
LONDON         CLEAR     39  34  82 N5        30.13R
SOMERSET       CLEAR     36  34  93 CALM      30.15S
MIDDLESBORO    FOG       35  35 100 CALM      30.13S VSB 1/4
MONTICELLO     SUNNY     33  33 100 CALM      30.16R
$$




USA.gov is the U.S. government's official web portal to all federal, state and local government web resources and services.